Location: 22
(39.7117°N, 89.5929°W)
Time: 18:32:42
(UTC-05:00)

Gurwin Techsat 1B - Pass Details

Date: 06 April 2023
Orbit: 811 x 813 km, 98.9° (Epoch: 06 June)

Event Time Altitude Azimuth Distance (km) Brightness Sun altitude
Rises 03:32:02 0° 18° (NNE) 3,346 12.7 -32.2°
Reaches altitude 10° 03:34:26 10° 23° (NNE) 2,410 11.8 -31.9°
Enters shadow 03:39:17 53° 84° (E) 990 9.2 -31.2°
